CW5619 Weather Reports


Display with metric or nautical units.
time (UTC)temp
F
wind
direction
speed
MPH
gust
MPH
rain 1hr
in
rain 24hr
in
rain mn
in
humidity
%
barometer
mb
20260902222403 96 208 2.0 8.0 0.00 0.00 0.00 36 1013.7
20260902221903 96 2 2.0 7.0 0.00 0.00 0.00 36 1013.7
20260902220902 96 354 2.0 8.0 0.00 0.00 0.00 37 1013.8
20260902220403 96 280 3.0 8.0 0.00 0.00 0.00 36 1014.0
20260902215406 96 227 2.0 9.0 0.00 0.00 0.00 37 1014.1
20260902214902 96 246 1.0 10.0 0.00 0.00 0.00 38 1014.2
20260902214403 97 215 4.0 10.0 0.00 0.00 0.00 37 1014.3
20260902213903 98 31 2.0 10.0 0.00 0.00 0.00 37 1014.2
20260902213402 98 224 3.0 10.0 0.00 0.00 0.00 36 1014.0
20260902212902 98 241 3.0 8.0 0.00 0.00 0.00 38 1014.2
20260902212403 99 318 3.0 8.0 0.00 0.00 0.00 36 1014.2
20260902211903 99 240 2.0 8.0 0.00 0.00 0.00 37 1014.3
20260902211402 98 124 3.0 8.0 0.00 0.00 0.00 37 1014.4
20260902210902 98 231 3.0 8.0 0.00 0.00 0.00 36 1014.4
20260902210404 98 10 2.0 9.0 0.00 0.00 0.00 35 1014.5
20260902205403 98 218 2.0 9.0 0.00 0.00 0.00 37 1014.6
20260902204903 98 41 5.0 9.0 0.00 0.00 0.00 37 1014.6
20260902204403 98 238 2.0 9.0 0.00 0.00 0.00 37 1014.7
20260902203903 97 247 3.0 5.0 0.00 0.00 0.00 39 1014.8
20260902203411 98 184 3.0 7.0 0.00 0.00 0.00 37 1014.7
20260902202903 98 280 2.0 8.0 0.00 0.00 0.00 36 1014.8
20260902202402 98 10 3.0 8.0 0.00 0.00 0.00 37 1014.8
20260902201402 97 198 2.0 12.0 0.00 0.00 0.00 37 1014.9
20260902195902 97 229 2.0 6.0 0.00 0.00 0.00 38 1015.3
20260902195403 98 35 2.0 6.0 0.00 0.00 0.00 37 1015.3
20260902194903 97 324 2.0 7.0 0.00 0.00 0.00 39 1015.4
20260902193903 97 191 2.0 5.0 0.00 0.00 0.00 38 1015.8
20260902193403 97 242 2.0 8.0 0.00 0.00 0.00 38 1015.8
20260902192902 96 198 2.0 9.0 0.00 0.00 0.00 38 1015.8
20260902192404 96 240 3.0 9.0 0.00 0.00 0.00 39 1015.9
20260902191403 95 352 1.0 6.0 0.00 0.00 0.00 41 1016.1
20260902190407 95 277 3.0 6.0 0.00 0.00 0.00 42 1016.3
20260902183902 94 222 2.0 9.0 0.00 0.00 0.00 43 1016.6
20260902183403 95 231 2.0 7.0 0.00 0.00 0.00 41 1016.7
20260902181903 94 224 1.0 9.0 0.00 0.00 0.00 42 1017.0
20260902181403 93 234 2.0 12.0 0.00 0.00 0.00 44 1017.0
20260902180903 93 228 4.0 12.0 0.00 0.00 0.00 43 1017.1
20260902180402 94 347 1.0 5.0 0.00 0.00 0.00 43 1017.1
20260902173903 92 236 2.0 5.0 0.00 0.00 0.00 44 1017.1
20260902173403 91 26 2.0 5.0 0.00 0.00 0.00 45 1017.1
20260902172903 91 235 2.0 3.0 0.00 0.00 0.00 45 1017.1
20260902171902 92 233 1.0 3.0 0.00 0.00 0.00 45 1017.2
20260902171403 92 303 1.0 8.0 0.00 0.00 0.00 45 1017.2
20260902170902 91 15 1.0 8.0 0.00 0.00 0.00 46 1017.2
20260902164402 90 71 0.0 3.0 0.00 0.00 0.00 47 1017.1
20260902162403 88 203 1.0 3.0 0.00 0.00 0.00 51 1017.2
20260902161907 88 187 1.0 3.0 0.00 0.00 0.00 51 1017.3
20260902160903 87 150 1.0 3.0 0.00 0.00 0.00 51 1017.2
20260902160403 88 151 1.0 3.0 0.00 0.00 0.00 52 1017.2
20260902155403 87 193 0.0 3.0 0.00 0.00 0.00 53 1017.2
20260902154903 87 56 1.0 3.0 0.00 0.00 0.00 53 1017.2
20260902154403 86 72 1.0 3.0 0.00 0.00 0.00 54 1017.2
20260902153902 86 107 0.0 3.0 0.00 0.00 0.00 55 1017.2
20260902153403 85 81 1.0 3.0 0.00 0.00 0.00 55 1017.2
20260902152403 84 174 1.0 3.0 0.00 0.00 0.00 57 1017.1
20260902151904 84 98 1.0 3.0 0.00 0.00 0.00 57 1017.0
20260902150903 83 119 1.0 3.0 0.00 0.00 0.00 59 1017.0
20260902150402 83 72 1.0 3.0 0.00 0.00 0.00 60 1017.0
20260902145419 83 102 1.0 3.0 0.00 0.00 0.00 61 1016.9
20260902144903 82 124 2.0 3.0 0.00 0.00 0.00 62 1017.0
20260902143903 81 108 0.0 3.0 0.00 0.00 0.00 65 1017.0
20260902143403 80 105 1.0 2.0 0.00 0.00 0.00 67 1017.0
20260902141403 78 115 0.0 1.0 0.00 0.00 0.00 72 1016.9
20260902140903 77 78 0.0 0.0 0.00 0.00 0.00 74 1016.9
20260902133902 75 78 0.0 2.0 0.00 0.00 0.00 77 1016.6
20260902133402 74 78 1.0 2.0 0.00 0.00 0.00 78 1016.6
20260902132903 74 82 0.0 2.0 0.00 0.00 0.00 77 1016.4
20260902132402 74 101 0.0 1.0 0.00 0.00 0.00 77 1016.4
20260902131903 74 101 0.0 1.0 0.00 0.00 0.00 77 1016.4
20260902131402 74 101 0.0 1.0 0.00 0.00 0.00 77 1016.3
20260902130902 74 101 0.0 0.0 0.00 0.00 0.00 77 1016.3
20260902130403 74 101 0.0 0.0 0.00 0.00 0.00 77 1016.3
20260902125903 74 101 0.0 0.0 0.00 0.00 0.00 78 1016.2
20260902125403 74 101 0.0 1.0 0.00 0.00 0.00 78 1016.2
20260902124903 74 101 0.0 1.0 0.00 0.00 0.00 78 1016.2
20260902124403 74 101 0.0 1.0 0.00 0.00 0.00 78 1016.1
20260902123903 74 101 0.0 1.0 0.00 0.00 0.00 77 1016.1
20260902123403 74 101 0.0 0.0 0.00 0.00 0.00 77 1016.0
20260902122903 74 101 0.0 0.0 0.00 0.00 0.00 77 1016.0
20260902122403 74 101 0.0 0.0 0.00 0.00 0.00 77 1016.0
20260902121403 75 101 0.0 0.0 0.00 0.00 0.00 76 1016.0
20260902120903 75 101 0.0 0.0 0.00 0.00 0.00 76 1016.0
20260902115903 75 101 0.0 1.0 0.00 0.00 0.00 76 1015.9
20260902115403 75 125 0.0 1.0 0.00 0.00 0.00 76 1015.8
20260902114903 75 125 0.0 0.0 0.00 0.00 0.00 75 1015.8
20260902113903 75 125 0.0 0.0 0.00 0.00 0.00 75 1015.8
20260902113403 75 125 0.0 1.0 0.00 0.00 0.00 75 1015.8
20260902112903 75 125 0.0 1.0 0.00 0.00 0.00 75 1015.8
20260902112403 76 130 0.0 1.0 0.00 0.00 0.00 74 1015.8
20260902111403 76 163 0.0 3.0 0.00 0.00 0.00 75 1015.8
20260902110903 76 172 0.0 3.0 0.00 0.00 0.00 76 1015.7
20260902110403 76 192 1.0 2.0 0.00 0.00 0.00 76 1015.8
20260902105903 76 112 0.0 1.0 0.00 0.00 0.00 76 1015.7
20260902105403 76 112 0.0 1.0 0.00 0.00 0.00 75 1015.7
20260902104903 76 112 0.0 1.0 0.00 0.00 0.00 74 1015.7
20260902104402 76 112 0.0 1.0 0.00 0.00 0.00 74 1015.7
20260902103903 76 182 0.0 0.0 0.00 0.00 0.00 74 1015.8
20260902103402 76 182 0.0 0.0 0.00 0.00 0.00 74 1015.9
20260902102403 76 182 0.0 3.0 0.00 0.00 0.00 75 1016.0
20260902101904 76 63 0.0 1.0 0.00 0.00 0.00 74 1015.8
20260902101402 76 63 0.0 1.0 0.00 0.00 0.00 74 1015.8
20260902100902 76 63 0.0 1.0 0.00 0.00 0.00 73 1015.7
20260902100403 77 63 0.0 1.0 0.00 0.00 0.00 73 1015.8
20260902095902 76 63 0.0 1.0 0.00 0.00 0.00 73 1015.8
20260902095402 76 63 0.0 1.0 0.00 0.00 0.00 73 1015.7
20260902094903 76 63 0.0 1.0 0.00 0.00 0.00 73 1015.7
20260902093903 77 63 0.0 1.0 0.00 0.00 0.00 73 1015.7
20260902093404 77 63 0.0 2.0 0.00 0.00 0.00 73 1015.8
20260902092903 77 63 1.0 2.0 0.00 0.00 0.00 73 1015.7
20260902092403 77 67 0.0 2.0 0.00 0.00 0.00 73 1015.7
20260902091904 76 62 0.0 0.0 0.00 0.00 0.00 74 1015.9
20260902091403 76 74 0.0 1.0 0.00 0.00 0.00 73 1015.8
20260902090902 77 61 0.0 1.0 0.00 0.00 0.00 73 1015.7
20260902085903 77 61 0.0 2.0 0.00 0.00 0.00 72 1015.7
20260902085402 77 61 0.0 2.0 0.00 0.00 0.00 72 1015.7
20260902084903 77 51 0.0 2.0 0.00 0.00 0.00 71 1015.7
20260902084403 78 5 0.0 2.0 0.00 0.00 0.00 70 1015.7
20260902083903 78 294 0.0 2.0 0.00 0.00 0.00 69 1015.7
20260902083403 78 256 1.0 2.0 0.00 0.00 0.00 69 1015.8
20260902082902 78 268 1.0 2.0 0.00 0.00 0.00 69 1015.7
20260902082402 78 268 0.0 0.0 0.00 0.00 0.00 68 1015.8
20260902081903 78 268 0.0 0.0 0.00 0.00 0.00 68 1015.7
20260902081403 78 268 0.0 3.0 0.00 0.00 0.00 67 1015.8
20260902080403 78 243 2.0 3.0 0.00 0.00 0.00 69 1015.7
20260902075903 78 99 0.0 0.0 0.00 0.00 0.00 69 1015.5
20260902075403 78 99 0.0 0.0 0.00 0.00 0.00 69 1015.4
20260902074903 78 72 0.0 0.0 0.00 0.00 0.00 69 1015.4
20260902074403 78 78 0.0 0.0 0.00 0.00 0.00 68 1015.3
20260902073902 78 82 0.0 2.0 0.00 0.00 0.00 68 1015.4
20260902073403 78 58 0.0 2.0 0.00 0.00 0.00 68 1015.5
20260902072903 78 70 0.0 2.0 0.00 0.00 0.00 68 1015.5
20260902071903 79 51 1.0 2.0 0.00 0.00 0.00 67 1015.5
20260902071402 79 66 0.0 2.0 0.00 0.00 0.00 66 1015.5
20260902070403 79 94 1.0 2.0 0.00 0.00 0.00 65 1015.5
20260902065903 79 63 0.0 2.0 0.00 0.00 0.00 65 1015.4
20260902065403 79 63 0.0 2.0 0.00 0.00 0.00 64 1015.4
20260902064902 79 66 1.0 2.0 0.00 0.00 0.00 65 1015.3
20260902064403 79 115 0.0 2.0 0.00 0.00 0.00 65 1015.3
20260902063903 80 68 0.0 2.0 0.00 0.00 0.00 64 1015.3
20260902063403 80 49 0.0 2.0 0.00 0.00 0.00 64 1015.2
20260902062403 80 74 1.0 2.0 0.00 0.00 0.00 64 1015.3
20260902061903 80 151 0.0 3.0 0.00 0.00 0.00 64 1015.3
20260902061403 80 33 0.0 3.0 0.00 0.00 0.00 63 1015.3
20260902060403 80 38 1.0 3.0 0.00 0.00 0.00 64 1015.2
20260902055903 80 58 1.0 3.0 0.00 0.00 0.00 63 1015.2
20260902055403 81 37 0.0 2.0 0.00 0.00 0.00 63 1015.2
20260902054903 81 37 0.0 2.0 0.00 0.00 0.00 62 1015.3
20260902054403 81 41 1.0 2.0 0.00 0.00 0.00 62 1015.3
20260902053903 81 46 0.0 1.0 0.00 0.00 0.00 62 1015.3
20260902053402 81 46 0.0 1.0 0.00 0.00 0.00 62 1015.3
20260902052903 81 46 0.0 2.0 0.00 0.00 0.00 62 1015.3
20260902052403 82 46 0.0 2.0 0.00 0.00 0.00 61 1015.4
20260902051903 82 46 0.0 2.0 0.00 0.00 0.00 61 1015.4
20260902051403 82 41 0.0 2.0 0.00 0.00 0.00 60 1015.4
20260902050903 82 50 0.0 2.0 0.00 0.00 0.00 60 1015.4
20260902050403 82 57 0.0 2.0 0.00 0.00 0.00 59 1015.5
20260902045903 82 62 1.0 2.0 0.00 0.00 0.00 59 1015.5
20260902045403 82 45 0.0 2.0 0.00 0.00 0.00 59 1015.5
20260902044903 82 79 0.0 2.0 0.00 0.00 0.00 59 1015.5
20260902044403 82 79 0.0 2.0 0.00 0.00 0.00 59 1015.4
20260902042903 83 98 0.0 0.0 0.00 0.00 0.00 59 1015.5
20260902042403 83 86 0.0 0.0 0.00 0.00 0.00 59 1015.4
20260902041903 83 94 0.0 0.0 0.00 0.00 0.00 58 1015.4
20260902041403 83 72 0.0 0.0 0.00 0.00 0.00 56 1015.3
20260902040903 83 61 0.0 0.0 0.00 0.00 0.00 57 1015.3
20260902040403 83 67 0.0 0.0 0.00 0.00 0.00 58 1015.2
20260902035403 84 69 0.0 0.0 0.00 0.00 0.00 58 1015.0
20260902034903 84 69 0.0 0.0 0.00 0.00 0.00 57 1015.0
20260902034403 84 90 0.0 0.0 0.00 0.00 0.00 56 1014.9
20260902033903 85 63 0.0 0.0 0.00 0.00 0.00 54 1014.8
20260902032402 86 4 0.0 1.0 0.00 0.00 0.00 50 1014.6
20260902031403 86 9 1.0 2.0 0.00 0.00 0.00 50 1014.4
20260902030403 87 0 1.0 3.0 0.00 0.00 0.00 49 1014.2
20260902025903 87 329 0.0 2.0 0.00 0.00 0.00 50 1014.0
20260902025402 87 297 0.0 2.0 0.00 0.00 0.00 49 1013.9
20260902024903 87 355 0.0 2.0 0.00 0.00 0.00 49 1013.8
20260902024403 88 342 0.0 2.0 0.00 0.00 0.00 48 1013.7
20260902023903 88 336 0.0 2.0 0.00 0.00 0.00 47 1013.7
20260902023403 88 310 1.0 3.0 0.00 0.00 0.00 46 1013.6
20260902021903 89 328 0.0 2.0 0.00 0.00 0.00 45 1013.4
20260902021403 89 355 0.0 3.0 0.00 0.00 0.00 44 1013.4
20260902020903 89 320 0.0 3.0 0.00 0.00 0.00 43 1013.3
20260902020403 89 338 1.0 3.0 0.00 0.00 0.00 43 1013.3
20260902015902 89 347 0.0 3.0 0.00 0.00 0.00 43 1013.2
20260902015403 89 355 1.0 3.0 0.00 0.00 0.00 43 1013.2
20260902014902 90 349 1.0 2.0 0.00 0.00 0.00 43 1013.1
20260902013403 90 355 0.0 3.0 0.00 0.00 0.00 42 1013.1
20260902011402 91 236 1.0 3.0 0.00 0.89 0.00 43 1013.2
20260902010903 91 185 2.0 3.0 0.00 0.89 0.00 42 1013.2
20260902010403 92 350 2.0 3.0 0.00 0.89 0.00 41 1013.3
20260902005403 92 290 1.0 3.0 0.00 0.89 0.00 39 1013.1
20260902004902 92 226 1.0 3.0 0.00 0.89 0.00 38 1013.1
20260902004403 92 18 2.0 6.0 0.00 0.89 0.00 38 1013.1
20260902003903 93 353 1.0 6.0 0.00 0.89 0.00 37 1013.1
20260902002903 93 217 2.0 5.0 0.00 0.89 0.00 36 1013.3
20260902001902 93 305 1.0 3.0 0.00 0.89 0.00 36 1013.3
20260902001403 93 221 2.0 5.0 0.00 0.89 0.00 36 1013.3
20260902000903 94 45 1.0 9.0 0.00 0.89 0.00 36 1013.4
20260902000403 94 188 1.0 9.0 0.00 0.89 0.00 35 1013.4
20260901235903 94 242 2.0 9.0 0.00 0.89 0.00 36 1013.4
20260901235403 94 223 3.0 8.0 0.00 0.89 0.00 36 1013.5
20260901234903 94 232 3.0 8.0 0.00 0.89 0.00 36 1013.5
20260901234403 94 99 1.0 8.0 0.00 0.89 0.00 36 1013.5
20260901233903 95 209 2.0 8.0 0.00 0.89 0.00 37 1013.7
20260901233403 95 211 2.0 6.0 0.00 0.89 0.00 37 1013.6
20260901232903 95 233 3.0 6.0 0.00 0.89 0.00 35 1013.6
20260901231904 95 22 1.0 5.0 0.00 0.89 0.00 36 1013.8
20260901231403 95 235 1.0 6.0 0.00 0.89 0.00 36 1013.8
20260901230903 95 20 2.0 7.0 0.00 0.89 0.00 37 1013.8
20260901230403 95 225 3.0 7.0 0.00 0.89 0.00 35 1013.9
20260901225903 96 41 2.0 5.0 0.00 0.89 0.00 37 1013.9
20260901225403 95 19 2.0 5.0 0.00 0.89 0.00 36 1013.9
20260901224903 95 239 3.0 5.0 0.00 0.89 0.00 35 1013.9
20260901224403 96 278 2.0 5.0 0.00 0.89 0.00 35 1013.9
20260901223903 96 290 1.0 9.0 0.00 0.89 0.00 36 1014.2
20260901223403 96 254 2.0 9.0 0.00 0.89 0.00 35 1014.0